Location: Antin
(43.3330°N, 0.2804°E)
Time: 19:53:46
(UTC+00:00)

SME Rocket - Pass Details

Date: 14 December 2023
Orbit: 550 x 2645 km, 99.9° (Epoch: 20 February)

Event Time Altitude Azimuth Distance (km) Brightness Sun altitude
Rises 06:37:56 0° 16° (NNE) 5,919 8.0 -8.1°
Reaches altitude 10° 06:41:29 10° 22° (NNE) 5,081 7.7 -7.5°
Maximum altitude 06:55:03 52° 97° (E) 3,102 7.1 -5.3°
Drops below altitude 10° 07:08:31 10° 170° (S) 5,080 8.3 -3.1°
Sets 07:12:00 0° 175° (S) 5,921 8.6 -2.6°
